Preview of NWS' New Version of Forecast
This preview is not operational and should not be used for support decisions.

Regional Weather Roundup (RWR)

Issued by National Weather Service (NWS)

                            
000
ASUS43 KMKX 221521
RWRWI 

WISCONSIN REGIONAL WEATHER ROUNDUP
NATIONAL WEATHER SERVICE MILWAUKEE/SULLIVAN WI
1000 AM CDT MON JUL 22 2019

NOTE: "FAIR" INDICATES FEW OR NO CLOUDS BELOW 12,000 FEET WITH NO
SIGNIFICANT WEATHER AND/OR OBSTRUCTIONS TO VISIBILITY.

WIZ001-002-006>008-014>016-023>028-221600-
NORTHWEST WISCONSIN
  
CITY           SKY/WX    TMP DP  RH WIND       PRES   REMARKS
SUPERIOR ARPT  FAIR      72  56  57 NW8       30.19S                  
ASHLAND        FAIR      71  55  56 NW5       30.17S                  
HAYWARD        FAIR      68  54  60 NW5       30.20F                  
SIREN          FAIR      69  53  56 NW6       30.22S                  
CUMBERLAND     NOT AVBL                                               
RICE LAKE      FAIR      69  54  59 NW8       30.22F                  
CHETEK         FAIR      69  54  59 NW6       30.21F                  
LADYSMITH      FAIR      69  54  57 NW9       30.21F                  
EAU CLAIRE     FAIR      70  50  49 N8        30.19S                  
MENOMONIE      FAIR      67  46  47 N9        30.21S                  
NEW RICHMOND   FAIR      69  51  52 N7        30.23S                  
OSCEOLA        FAIR      67  53  60 N5        30.26S                  
$$
 
WIZ003>005-009-010-017-018-221600-
NORTH CENTRAL WISCONSIN
  
CITY           SKY/WX    TMP DP  RH WIND       PRES   REMARKS
MANITOWISH WTR FAIR      68  50  53 NW7       30.16F                  
ARBOR VITAE    FAIR      69  55  59 N9        30.16F                  
WOODRUFF       FAIR      69  55  59 N9        30.16F                  
RHINELANDER    FAIR      67  49  52 N8G16     30.17F                  
EAGLE RIVER    FAIR      69  47  46 NW8       30.15F                  
LAND O LAKES   FAIR      69  49  49 N7        30.17S                  
PHILLIPS       FAIR      68  53  58 NW8       30.18S                  
TOMAHAWK       FAIR      67  50  55 NW7       30.18S                  
MEDFORD        FAIR      66  49  55 N9        30.18F                  
MERRILL        FAIR      68  51  54 N10       30.17S                  
$$
 
WIZ029-030-035-036-043>047-221600-
CENTRAL WISCONSIN
  
CITY           SKY/WX    TMP DP  RH WIND       PRES   REMARKS
WAUSAU         FAIR      68  47  46 N14G20    30.15F                  
MOSINEE        MOSUNNY   66  48  52 N13       30.18S                  
MARSHFIELD     FAIR      68  50  52 N9G20     30.17S                  
STEVENS POINT  FAIR      68  48  48 N12G18    30.16S                  
WAUPACA        NOT AVBL                                               
WAUTOMA        FAIR      69  55  60 N8        30.15S                  
WISC RAPIDS    FAIR      71  54  54 N12       30.16F                  
CAMP DOUGLAS   MOSUNNY   72  50  46 NE5       30.15S                  
$$
 
WIZ011>013-019>022-031-037>040-048>050-221600-
NORTHEAST WISCONSIN
  
CITY           SKY/WX    TMP DP  RH WIND       PRES   REMARKS
ANTIGO         FAIR      66  49  54 N12       30.17S                  
SHAWANO        FAIR      72  48  43 N12G17    30.13R                  
OCONTO         FAIR      69  53  55 NW7       30.11S                  
STURGEON BAY   FAIR      67  56  67 N10       30.11S                  
GREEN BAY      FAIR      70  55  59 NW9       30.11F                  
MANITOWOC      FAIR      69  52  54 NW12      30.10F                  
APPLETON       MOSUNNY   68  48  49 NW10      30.11F                  
CLINTONVILLE   FAIR      71  47  41 N12       30.13S                  
OSHKOSH        FAIR      69  52  54 NW12      30.12S                  
$$
 
WIZ032>034-041-042-053>061-221600-
SOUTHWEST WISCONSIN
  
CITY           SKY/WX    TMP DP  RH WIND       PRES   REMARKS
LA CROSSE      FAIR      73  53  49 NE7       30.16S                  
SPARTA         FAIR      69  52  54 NE6       30.17S                  
VIROQUA        FAIR      70  61  73 N9        30.17S                  
BOSCOBEL       FAIR      73  60  63 VRB5      30.15R                  
PRAIRIE DU CHI PTSUNNY   73  59  62 N6        30.14S                  
PLATTEVILLE    FAIR      71  62  74 NE8       30.14S                  
$$

WIZ056-057-062-063-064-067-068-221600-
SOUTH CENTRAL WISCONSIN
  
CITY           SKY/WX    TMP DP  RH WIND       PRES   REMARKS
REEDSBURG      FAIR      70  52  53 N7        30.14S                  
BARABOO/DELLS  FAIR      69  51  53 NE8       30.14S                  
LONE ROCK      FAIR      70  58  65 NE9       30.14S                  
MINERAL POINT  FAIR      72  63  73 N7        30.14S                  
MADISON        FAIR      70  52  52 N12       30.13R                  
MIDDLETON      FAIR      71  53  53 NE12      30.14R                  
WATERTOWN      NOT AVBL                                               
MONROE         FAIR      71  57  61 N12       30.12S                  
JANESVILLE     MOSUNNY   72  55  56 NE12      30.10F                  
$$
 
WIZ051-052-058>065-066-070>072-221600-
SOUTHEAST WISCONSIN
  
CITY           SKY/WX    TMP DP  RH WIND       PRES   REMARKS
MILWAUKEE      FAIR      69  49  48 N14G22    30.09F                  
WAUKESHA       SUNNY     66  46  48 N10G16    30.12S                  
MILWAUKEE/TIMM SUNNY     70  45  40 N9        30.11S                  
RACINE         FAIR      67  54  63 N14G23    30.11S                  
KENOSHA        FAIR      70  51  51 N14G22    30.09S                  
FOND DU LAC    FAIR      72  52  49 N14       30.12F                  
SHEBOYGAN      FAIR      70  49  47 N10       30.10F                  
WEST BEND      FAIR      68  48  49 N12       30.11S                  
JUNEAU         FAIR      67  51  55 N10       30.13S                  
$$

LSZ147-162-221600-
LAKE SUPERIOR
  
STATION/POSITION TIME  TEMP    WIND        PRES    WAVE
                       AIR SEA DIR/SP/G            HT/PER
                 (UTC) (F)     (DEG/KT/KT) (MB)    (FT/S)
W MID LAKE BUOY  1450   56 47  270/  8/  8 1019.5F   1
$$
 
LMZ867-665-643>646-221600-
LAKE MICHIGAN
  
STATION/POSITION TIME  TEMP    WIND        PRES    WAVE
                       AIR SEA DIR/SP/G            HT/PER
                 (UTC) (F)     (DEG/KT/KT) (MB)    (FT/S)
CHAMBERS ISLAND  1440   68     310/  7/ 10 1018.6S
S GREEN BAY BUOY 1500   70 72  330/ 10/ 14 1019.6
N MID LAKE BUOY  1500   64 63  350/ 10/ 12 1019.0
NORTHPORT PIER   1440   66     320/  6/  8 1018.6S
KEWAUNEE LAKESHO 1448   69      30/  2/  8 1018.5F
SHEBOYGAN LAKESH 1500   63      60/ 10/ 10 1019.1S
ATWATER BUOY     1500   64 65   10/ 12/ 16 1019.3    4/21
MILWAUKEE LAKESH 1450   64      20/ 12/ 15   N/A
S MID LAKE BUOY  1500   65 69  360/ 19/ 23 1018.0
KENOSHA   LAKESH 1500   63      10/ 19/ 21 1018.6
$$

TC  - TEMPERATURE IN CELSIUS
VSB - VISIBILITY IN STATUTE MILES
WCI - WIND CHILL INDEX
HX  - HEAT INDEX